User: anonymous   Login
Location: Elstree
(51.6403°N, 0.2969°W)
Time: 11:16:33
(UTC+00:00)
Language:

H-2A R/B - Orbit

View from above orbital plane
View from above orbital plane
View from above satellite
View from above satellite

Ground track
Ground track

The orbit data is extracted from the following two-line orbital elements,

1 27601U 02056E   21138.08211991 -.00000018  00000-0  83464-5 0  9995
2 27601  98.1915 161.9972 0072069   1.5582  61.5817 14.31992093962579
Epoch (UTC): 18 May 2021 01:58:15
Eccentricity: 0.0072069
inclination: 98.1915°
perigee height: 733 km
apogee height: 837 km
right ascension of ascending node: 161.9972°
argument of perigee: 1.5582°
revolutions per day: 14.31992093
mean anomaly at epoch: 61.5817°
orbit number at epoch: 96257

The dashed part of the orbit path shows where the satellite is in the earth's shadow,  

DLR